Tiempo cada hora Segovia

Hoy, 19 Abril, Lunes

Tiempo Temperatura Precipitaciones Viento Presión Humedad
00:00 +8°C° 0 mm 1 mps 677 mmHg 50%
01:00 +8°C° 0 mm 1 mps 677 mmHg 48%
02:00 +8°C° 0 mm 1 mps 677 mmHg 46%
03:00 +8°C° 0 mm 1 mps 677 mmHg 44%
04:00 +8°C° 0 mm 1 mps 677 mmHg 45%
05:00 +8°C° 0 mm 1 mps 676 mmHg 47%
06:00 +8°C° 0 mm 1 mps 676 mmHg 49%
07:00 +10°C° 0 mm 1 mps 677 mmHg 48%
08:00 +10°C° 0 mm 2 mps 677 mmHg 46%
09:00 +13°C° 0 mm 2 mps 677 mmHg 45%
10:00 +14°C° 0 mm 2 mps 677 mmHg 46%
11:00 +13°C° 0 mm 3 mps 677 mmHg 48%
12:00 +14°C° 0 mm 3 mps 677 mmHg 49%
13:00 +14°C° 0.1 mm 3 mps 676 mmHg 51%
14:00 +14°C° 0.1 mm 3 mps 676 mmHg 52%
15:00 +14°C° 0.1 mm 3 mps 676 mmHg 54%
16:00 +13°C° 0.3 mm 2 mps 675 mmHg 63%
17:00 +12°C° 0.3 mm 2 mps 675 mmHg 71%
18:00 +11°C° 0.3 mm 1 mps 675 mmHg 80%
19:00 +10°C° 0.1 mm 2 mps 675 mmHg 82%
20:00 +9°C° 0.1 mm 2 mps 675 mmHg 83%
21:00 +9°C° 0.1 mm 2 mps 675 mmHg 85%
22:00 +9°C° 0 mm 2 mps 675 mmHg 84%
23:00 +9°C° 0 mm 2 mps 675 mmHg 82%

Mañana, 20 Abril, Martes

Tiempo Temperatura Precipitaciones Viento Presión Humedad
00:00 +9°C° 0 mm 2 mps 675 mmHg 81%
01:00 +8°C° 0.1 mm 2 mps 674 mmHg 82%
02:00 +8°C° 0.1 mm 2 mps 674 mmHg 82%
03:00 +8°C° 0.1 mm 2 mps 674 mmHg 83%
04:00 +7°C° 0 mm 2 mps 674 mmHg 82%
05:00 +7°C° 0 mm 2 mps 674 mmHg 82%
06:00 +8°C° 0 mm 1 mps 674 mmHg 81%
07:00 +8°C° 0 mm 2 mps 674 mmHg 76%
08:00 +9°C° 0 mm 2 mps 674 mmHg 71%
09:00 +12°C° 0 mm 2 mps 674 mmHg 65%
10:00 +12°C° 0.2 mm 3 mps 674 mmHg 61%
11:00 +13°C° 0.2 mm 3 mps 674 mmHg 56%
12:00 +14°C° 0.2 mm 3 mps 674 mmHg 52%
13:00 +15°C° 0.2 mm 4 mps 673 mmHg 49%
14:00 +15°C° 0.2 mm 4 mps 673 mmHg 47%
15:00 +15°C° 0.2 mm 4 mps 673 mmHg 44%
16:00 +14°C° 0.2 mm 4 mps 673 mmHg 50%
17:00 +13°C° 0.2 mm 4 mps 673 mmHg 56%
18:00 +12°C° 0.2 mm 3 mps 672 mmHg 62%
19:00 +11°C° 0.2 mm 3 mps 673 mmHg 69%
20:00 +10°C° 0.2 mm 2 mps 673 mmHg 76%
21:00 +10°C° 0.2 mm 1 mps 673 mmHg 83%
22:00 +9°C° 0 mm 1 mps 673 mmHg 83%
23:00 +9°C° 0 mm 1 mps 673 mmHg 84%

Pasado mañana, 21 Abril, Miércoles

Tiempo Temperatura Precipitaciones Viento Presión Humedad
00:00 +8°C° 0 mm 1 mps 672 mmHg 84%
01:00 +8°C° 0 mm 1 mps 672 mmHg 85%
02:00 +8°C° 0 mm 1 mps 672 mmHg 85%
03:00 +7°C° 0 mm 1 mps 672 mmHg 86%
04:00 +7°C° 0 mm 1 mps 672 mmHg 87%
05:00 +7°C° 0 mm 1 mps 672 mmHg 88%
06:00 +7°C° 0 mm 1 mps 672 mmHg 89%
07:00 +9°C° 0 mm 1 mps 672 mmHg 83%
08:00 +10°C° 0 mm 1 mps 672 mmHg 76%
09:00 +12°C° 0 mm 1 mps 673 mmHg 70%
10:00 +13°C° 0.3 mm 2 mps 673 mmHg 66%
11:00 +14°C° 0.3 mm 2 mps 673 mmHg 62%
12:00 +14°C° 0.3 mm 3 mps 672 mmHg 57%
13:00 +13°C° 0.3 mm 3 mps 672 mmHg 58%
14:00 +13°C° 0.3 mm 3 mps 672 mmHg 59%
15:00 +13°C° 0.3 mm 3 mps 672 mmHg 61%
16:00 +12°C° 0.2 mm 3 mps 671 mmHg 66%
17:00 +12°C° 0.2 mm 2 mps 671 mmHg 71%
18:00 +10°C° 0.2 mm 2 mps 671 mmHg 76%
19:00 +10°C° 1.1 mm 2 mps 671 mmHg 82%
20:00 +10°C° 1.1 mm 1 mps 672 mmHg 88%
21:00 +9°C° 1.1 mm 1 mps 672 mmHg 94%
22:00 +9°C° 0.8 mm 1 mps 672 mmHg 94%
23:00 +9°C° 0.8 mm 1 mps 671 mmHg 93%

22 Abril, Jueves

Tiempo Temperatura Precipitaciones Viento Presión Humedad
00:00 +9°C° 0.8 mm 1 mps 671 mmHg 92%
01:00 +9°C° 0.6 mm 1 mps 671 mmHg 92%
02:00 +9°C° 0.6 mm 1 mps 671 mmHg 92%
03:00 +8°C° 0.6 mm 1 mps 671 mmHg 91%
04:00 +8°C° 0.1 mm 1 mps 671 mmHg 91%
05:00 +8°C° 0.1 mm 1 mps 671 mmHg 90%
06:00 +7°C° 0.1 mm 0 mps 671 mmHg 90%
07:00 +9°C° 0.2 mm 1 mps 671 mmHg 86%
08:00 +10°C° 0.2 mm 1 mps 672 mmHg 83%
09:00 +10°C° 0.2 mm 1 mps 672 mmHg 80%
10:00 +10°C° 0.2 mm 2 mps 672 mmHg 77%
11:00 +12°C° 0.2 mm 2 mps 673 mmHg 74%
12:00 +12°C° 0.2 mm 2 mps 673 mmHg 70%
13:00 +13°C° 0.1 mm 2 mps 673 mmHg 67%
14:00 +14°C° 0.1 mm 2 mps 673 mmHg 63%
15:00 +14°C° 0.1 mm 2 mps 673 mmHg 59%
16:00 +14°C° 0.1 mm 2 mps 673 mmHg 62%
17:00 +14°C° 0.1 mm 1 mps 673 mmHg 65%
18:00 +13°C° 0.1 mm 1 mps 673 mmHg 68%
19:00 +12°C° 0 mm 1 mps 674 mmHg 70%
20:00 +11°C° 0 mm 1 mps 674 mmHg 72%
21:00 +10°C° 0 mm 1 mps 674 mmHg 75%
22:00 +10°C° 0 mm 1 mps 674 mmHg 76%
23:00 +9°C° 0 mm 1 mps 674 mmHg 78%

23 Abril, Viernes

Tiempo Temperatura Precipitaciones Viento Presión Humedad
00:00 +7°C° 0 mm 2 mps 674 mmHg 80%
01:00 +7°C° 0 mm 2 mps 674 mmHg 81%
02:00 +7°C° 0 mm 2 mps 674 mmHg 83%
03:00 +7°C° 0 mm 2 mps 673 mmHg 84%
04:00 +7°C° 0 mm 2 mps 674 mmHg 84%
05:00 +7°C° 0 mm 2 mps 674 mmHg 85%
06:00 +7°C° 0 mm 2 mps 674 mmHg 85%
07:00 +9°C° 0 mm 2 mps 674 mmHg 79%
08:00 +12°C° 0 mm 2 mps 674 mmHg 72%
09:00 +14°C° 0 mm 2 mps 675 mmHg 65%
10:00 +14°C° 0 mm 3 mps 675 mmHg 61%
11:00 +16°C° 0 mm 3 mps 675 mmHg 57%
12:00 +17°C° 0 mm 3 mps 675 mmHg 53%
13:00 +17°C° 0 mm 4 mps 675 mmHg 52%
14:00 +17°C° 0 mm 4 mps 675 mmHg 50%
15:00 +18°C° 0 mm 4 mps 675 mmHg 49%
16:00 +17°C° 0 mm 4 mps 675 mmHg 54%
17:00 +15°C° 0 mm 4 mps 675 mmHg 59%
18:00 +14°C° 0 mm 3 mps 675 mmHg 63%
19:00 +13°C° 0 mm 3 mps 675 mmHg 66%
20:00 +13°C° 0 mm 3 mps 675 mmHg 68%
21:00 +12°C° 0 mm 3 mps 675 mmHg 70%
22:00 +12°C° 0 mm 3 mps 675 mmHg 73%
23:00 +11°C° 0 mm 3 mps 675 mmHg 77%

24 Abril, Sábado

Tiempo Temperatura Precipitaciones Viento Presión Humedad
00:00 +11°C° 0 mm 3 mps 675 mmHg 80%
01:00 +10°C° 0 mm 3 mps 675 mmHg 83%
02:00 +9°C° 0 mm 3 mps 675 mmHg 85%
03:00 +9°C° 0 mm 3 mps 675 mmHg 88%
04:00 +8°C° 0 mm 3 mps 675 mmHg 88%
05:00 +8°C° 0 mm 3 mps 675 mmHg 89%
06:00 +8°C° 0 mm 2 mps 675 mmHg 89%
07:00 +10°C° 0 mm 3 mps 676 mmHg 80%
08:00 +12°C° 0 mm 3 mps 676 mmHg 71%
09:00 +14°C° 0 mm 3 mps 676 mmHg 62%
10:00 +16°C° 0 mm 3 mps 676 mmHg 58%
11:00 +17°C° 0 mm 3 mps 676 mmHg 53%
12:00 +19°C° 0 mm 3 mps 676 mmHg 48%
13:00 +19°C° 0 mm 4 mps 676 mmHg 47%
14:00 +19°C° 0 mm 4 mps 676 mmHg 46%
15:00 +19°C° 0 mm 5 mps 676 mmHg 45%
16:00 +17°C° 0 mm 5 mps 676 mmHg 50%
17:00 +17°C° 0 mm 4 mps 675 mmHg 55%
18:00 +15°C° 0 mm 4 mps 675 mmHg 60%
19:00 +14°C° 0 mm 3 mps 675 mmHg 65%
20:00 +12°C° 0 mm 3 mps 675 mmHg 70%
21:00 +11°C° 0 mm 3 mps 675 mmHg 76%
22:00 +11°C° 0 mm 3 mps 675 mmHg 77%
23:00 +12°C° 0 mm 2 mps 675 mmHg 78%
Mostrar más

Necesitamos Su Consentimiento

Meteoprog y nuestros Proveedores de Servicios pueden almacenar y acceder a sus datos personales como cookies, identificadores de dispositivo u otras tecnologías similares de su dispositivo y procesar dichos datos para personalizar contenido y anuncios, además de ofrecer funciones de redes sociales y analizar el tráfico.

  • Almacenar y/o acceder a información en su dispositivo

    Se puede almacenar o acceder a cookies, identificadores de dispositivo u otra información de su dispositivo para los fines anteriormente indicados.

  • Anuncios y contenido personalizados, medición de anuncios y contenido, percepciones del público, y desarrollo de productos

    Los anuncios y el contenido pueden personalizarse en base a su perfil. Se pueden añadir más datos para personalizar mejor los anuncios y contenidos. Se puede medir el rendimiento de los anuncios y contenidos. Se puede obtener la percepción sobre el público que ha visto los anuncios y contenidos. Dichos datos pueden usarse para desarrollar o mejorar la experiencia del usuario, sistemas y software.

Al hacer clic en ‘Estoy De Acuerdo’ usted permitirá el uso de las cookies, identificadores de dispositivo, balizas web u otras tecnologías similares indicadas. Su configuración puede cambiarse desde el navegador de su dispositivo.

Para ciertos fines, los intereses legítimos pueden ser considerados por encima del consentimiento. Puede leer más sobre ello en nuestra Política de Privacidad y Cookies.